EN

Hourly Weather La Cumbre

Today, 24 July, Saturday

Time Temperature Precipitation Wind Pressure Humidity
00:00 +5°C° 0 mm 1 mps 509 mmHg 89%
01:00 +5°C° 0 mm 1 mps 509 mmHg 89%
02:00 +5°C° 0 mm 1 mps 509 mmHg 89%
03:00 +5°C° 0 mm 1 mps 509 mmHg 88%
04:00 +6°C° 0 mm 1 mps 509 mmHg 88%
05:00 +6°C° 0 mm 1 mps 509 mmHg 87%
06:00 +6°C° 0 mm 1 mps 510 mmHg 86%
07:00 +6°C° 0 mm 1 mps 510 mmHg 85%
08:00 +8°C° 0 mm 1 mps 511 mmHg 78%
09:00 +10°C° 0 mm 1 mps 512 mmHg 72%
10:00 +12°C° 0 mm 1 mps 513 mmHg 65%
11:00 +13°C° 0.5 mm 1 mps 513 mmHg 67%
12:00 +13°C° 0.5 mm 1 mps 513 mmHg 69%
13:00 +13°C° 0.5 mm 1 mps 513 mmHg 70%
14:00 +12°C° 0.7 mm 1 mps 512 mmHg 75%
15:00 +11°C° 0.7 mm 1 mps 511 mmHg 79%
16:00 +11°C° 0.7 mm 1 mps 511 mmHg 84%
17:00 +10°C° 0.5 mm 1 mps 510 mmHg 87%
18:00 +8°C° 0.5 mm 1 mps 510 mmHg 91%
19:00 +7°C° 0.5 mm 1 mps 510 mmHg 95%
20:00 +7°C° 0.4 mm 1 mps 510 mmHg 95%
21:00 +6°C° 0.4 mm 1 mps 510 mmHg 94%
22:00 +6°C° 0.4 mm 1 mps 510 mmHg 94%
23:00 +6°C° 0.1 mm 1 mps 510 mmHg 94%

Tomorrow, 25 July, Sunday

Time Temperature Precipitation Wind Pressure Humidity
00:00 +6°C° 0.1 mm 1 mps 510 mmHg 94%
01:00 +6°C° 0.1 mm 1 mps 509 mmHg 93%
02:00 +6°C° 0 mm 1 mps 509 mmHg 93%
03:00 +6°C° 0 mm 1 mps 509 mmHg 93%
04:00 +6°C° 0 mm 1 mps 509 mmHg 93%
05:00 +6°C° 0 mm 1 mps 509 mmHg 92%
06:00 +6°C° 0 mm 1 mps 509 mmHg 92%
07:00 +7°C° 0 mm 1 mps 510 mmHg 91%
08:00 +8°C° 0.1 mm 1 mps 511 mmHg 86%
09:00 +10°C° 0.1 mm 1 mps 512 mmHg 80%
10:00 +11°C° 0.1 mm 1 mps 513 mmHg 75%
11:00 +11°C° 0.6 mm 1 mps 512 mmHg 76%
12:00 +12°C° 0.6 mm 1 mps 512 mmHg 78%
13:00 +12°C° 0.6 mm 1 mps 512 mmHg 80%
14:00 +11°C° 0.7 mm 1 mps 511 mmHg 84%
15:00 +9°C° 0.7 mm 0 mps 510 mmHg 87%
16:00 +9°C° 0.7 mm 0 mps 510 mmHg 91%
17:00 +8°C° 0.6 mm 0 mps 510 mmHg 93%
18:00 +7°C° 0.6 mm 0 mps 510 mmHg 94%
19:00 +6°C° 0.6 mm 0 mps 509 mmHg 96%
20:00 +6°C° 0.3 mm 0 mps 510 mmHg 96%
21:00 +6°C° 0.3 mm 0 mps 510 mmHg 96%
22:00 +6°C° 0.3 mm 0 mps 510 mmHg 96%
23:00 +6°C° 0.1 mm 0 mps 510 mmHg 96%

Day after tomorrow, 26 July, Monday

Time Temperature Precipitation Wind Pressure Humidity
00:00 +5°C° 0.1 mm 0 mps 510 mmHg 96%
01:00 +5°C° 0.1 mm 0 mps 510 mmHg 96%
02:00 +6°C° 0.3 mm 1 mps 509 mmHg 96%
03:00 +6°C° 0.3 mm 1 mps 509 mmHg 95%
04:00 +6°C° 0.3 mm 1 mps 509 mmHg 95%
05:00 +6°C° 0.1 mm 1 mps 509 mmHg 95%
06:00 +6°C° 0.1 mm 1 mps 510 mmHg 94%
07:00 +7°C° 0.1 mm 1 mps 510 mmHg 94%
08:00 +8°C° 0.1 mm 1 mps 511 mmHg 88%
09:00 +10°C° 0.1 mm 1 mps 512 mmHg 82%
10:00 +11°C° 0.1 mm 1 mps 512 mmHg 77%
11:00 +12°C° 0.4 mm 1 mps 513 mmHg 73%
12:00 +13°C° 0.4 mm 1 mps 513 mmHg 70%
13:00 +13°C° 0.4 mm 1 mps 513 mmHg 67%
14:00 +12°C° 0.8 mm 1 mps 512 mmHg 73%
15:00 +11°C° 0.8 mm 1 mps 511 mmHg 80%
16:00 +10°C° 0.8 mm 1 mps 510 mmHg 86%
17:00 +9°C° 0.7 mm 1 mps 510 mmHg 89%
18:00 +8°C° 0.7 mm 1 mps 510 mmHg 92%
19:00 +7°C° 0.7 mm 1 mps 510 mmHg 96%
20:00 +7°C° 0.3 mm 1 mps 510 mmHg 96%
21:00 +7°C° 0.3 mm 1 mps 510 mmHg 95%
22:00 +6°C° 0.3 mm 1 mps 510 mmHg 95%
23:00 +6°C° 0.1 mm 1 mps 510 mmHg 95%

27 July, Tuesday

Time Temperature Precipitation Wind Pressure Humidity
00:00 +6°C° 0.1 mm 1 mps 510 mmHg 95%
01:00 +6°C° 0.1 mm 1 mps 509 mmHg 95%
02:00 +5°C° 0.1 mm 1 mps 509 mmHg 95%
03:00 +5°C° 0.1 mm 1 mps 509 mmHg 94%
04:00 +5°C° 0.1 mm 1 mps 509 mmHg 94%
05:00 +6°C° 0 mm 1 mps 509 mmHg 93%
06:00 +5°C° 0 mm 0 mps 510 mmHg 93%
07:00 +5°C° 0 mm 0 mps 510 mmHg 92%
08:00 +7°C° 0.1 mm 0 mps 511 mmHg 87%
09:00 +9°C° 0.1 mm 1 mps 512 mmHg 83%
10:00 +11°C° 0.1 mm 1 mps 513 mmHg 79%
11:00 +11°C° 0.7 mm 1 mps 512 mmHg 81%
12:00 +11°C° 0.7 mm 1 mps 512 mmHg 84%
13:00 +11°C° 0.7 mm 1 mps 512 mmHg 86%
14:00 +10°C° 1 mm 1 mps 511 mmHg 88%
15:00 +9°C° 1 mm 1 mps 510 mmHg 91%
16:00 +9°C° 1 mm 1 mps 510 mmHg 93%
17:00 +8°C° 0.7 mm 1 mps 510 mmHg 94%
18:00 +7°C° 0.7 mm 0 mps 510 mmHg 95%
19:00 +6°C° 0.7 mm 0 mps 510 mmHg 96%
20:00 +6°C° 0.4 mm 0 mps 510 mmHg 96%
21:00 +6°C° 0.4 mm 0 mps 510 mmHg 96%
22:00 +6°C° 0.4 mm 0 mps 510 mmHg 96%
23:00 +6°C° 0.3 mm 0 mps 510 mmHg 96%

28 July, Wednesday

Time Temperature Precipitation Wind Pressure Humidity
00:00 +6°C° 0.3 mm 0 mps 510 mmHg 96%
01:00 +5°C° 0.3 mm 0 mps 509 mmHg 96%
02:00 +5°C° 0.6 mm 0 mps 509 mmHg 95%
03:00 +5°C° 0.6 mm 0 mps 509 mmHg 95%
04:00 +6°C° 0.6 mm 1 mps 509 mmHg 95%
05:00 +6°C° 0.1 mm 1 mps 509 mmHg 94%
06:00 +6°C° 0.1 mm 1 mps 510 mmHg 93%
07:00 +6°C° 0.1 mm 1 mps 510 mmHg 93%
08:00 +8°C° 0.2 mm 1 mps 511 mmHg 89%
09:00 +9°C° 0.2 mm 1 mps 512 mmHg 86%
10:00 +10°C° 0.2 mm 1 mps 512 mmHg 82%
11:00 +10°C° 0.7 mm 1 mps 512 mmHg 83%
12:00 +10°C° 0.7 mm 1 mps 512 mmHg 84%
13:00 +10°C° 0.7 mm 1 mps 511 mmHg 85%
14:00 +10°C° 1.7 mm 1 mps 511 mmHg 87%
15:00 +9°C° 1.7 mm 1 mps 510 mmHg 89%
16:00 +8°C° 1.7 mm 1 mps 510 mmHg 91%
17:00 +8°C° 1.4 mm 1 mps 510 mmHg 91%
18:00 +7°C° 1.4 mm 1 mps 510 mmHg 92%
19:00 +7°C° 1.4 mm 1 mps 510 mmHg 93%
20:00 +7°C° 0.3 mm 1 mps 510 mmHg 92%
21:00 +6°C° 0.3 mm 1 mps 510 mmHg 91%
22:00 +5°C° 0.3 mm 2 mps 510 mmHg 91%
23:00 +5°C° 0 mm 2 mps 510 mmHg 90%

29 July, Thursday

Time Temperature Precipitation Wind Pressure Humidity
00:00 +5°C° 0 mm 2 mps 509 mmHg 89%
01:00 +5°C° 0 mm 2 mps 509 mmHg 89%
02:00 +4°C° 0 mm 2 mps 508 mmHg 88%
03:00 +4°C° 0 mm 2 mps 508 mmHg 87%
04:00 +4°C° 0 mm 2 mps 508 mmHg 86%
05:00 +5°C° 0 mm 1 mps 508 mmHg 85%
06:00 +6°C° 0 mm 1 mps 509 mmHg 84%
07:00 +6°C° 0 mm 1 mps 509 mmHg 83%
08:00 +8°C° 0 mm 1 mps 511 mmHg 76%
09:00 +11°C° 0 mm 1 mps 512 mmHg 68%
10:00 +13°C° 0 mm 1 mps 513 mmHg 61%
11:00 +13°C° 0.2 mm 1 mps 513 mmHg 61%
12:00 +14°C° 0.2 mm 1 mps 513 mmHg 60%
13:00 +14°C° 0.2 mm 1 mps 513 mmHg 60%
14:00 +14°C° 0.6 mm 1 mps 512 mmHg 64%
15:00 +13°C° 0.6 mm 1 mps 512 mmHg 69%
16:00 +12°C° 0.6 mm 1 mps 511 mmHg 73%
17:00 +11°C° 0.4 mm 1 mps 510 mmHg 80%
18:00 +9°C° 0.4 mm 1 mps 510 mmHg 87%
19:00 +7°C° 0.4 mm 1 mps 509 mmHg 93%
20:00 +7°C° 0.1 mm 1 mps 509 mmHg 93%
21:00 +5°C° 0.1 mm 2 mps 510 mmHg 93%
22:00 +5°C° 0.1 mm 2 mps 510 mmHg 93%
23:00 +5°C° 0 mm 2 mps 510 mmHg 92%
Show more